This is the latest recevied weather packets stored in our database for station/object N8BAP. If no packets are shown the sender has not sent any weather packets the latest 10 day(s).
| Time | Temp. | Humidity | Pressure | Rain* | Wind** | Luminosity | Snow |
|---|---|---|---|---|---|---|---|
| 1788381465 | 33.89° C | 53% | 1022.4 hPa | 0 mm | - | 423 W/m² | - |
| 1788381165 | 33.89° C | 52% | 1022.3 hPa | 0 mm | - | 447 W/m² | - |
| 1788380860 | 33.89° C | 52% | 1022.5 hPa | 0 mm | - | 463 W/m² | - |
| 1788380556 | 33.89° C | 51% | 1022.5 hPa | 0 mm | - | 509 W/m² | - |
| 1788380253 | 33.33° C | 56% | 1022.5 hPa | 0 mm | - | 534 W/m² | - |
| 1788379951 | 33.33° C | 56% | 1022.8 hPa | 0 mm | - | 533 W/m² | - |
| 1788379647 | 33.33° C | 55% | 1022.8 hPa | 0 mm | - | 516 W/m² | - |
| 1788379342 | 33.89° C | 54% | 1022.7 hPa | 0 mm | - | 149 W/m² | - |
| 1788379038 | 33.89° C | 55% | 1022.8 hPa | 0 mm | - | 565 W/m² | - |
| 1788378737 | 33.33° C | 59% | 1022.7 hPa | 0 mm | - | 553 W/m² | - |
| 1788378436 | 33.33° C | 53% | 1022.8 hPa | 0 mm | - | 275 W/m² | - |
| 1788378132 | 32.78° C | 58% | 1022.9 hPa | 0 mm | - | 567 W/m² | - |
| 1788377827 | 33.33° C | 56% | 1023.2 hPa | 0 mm | - | 516 W/m² | - |
| 1788377523 | 33.89° C | 54% | 1023.1 hPa | 0 mm | - | 584 W/m² | - |
| 1788377220 | 33.89° C | 52% | 1023.2 hPa | 0 mm | - | 576 W/m² | - |
| 1788376915 | 33.89° C | 55% | 1023.1 hPa | 0 mm | - | 602 W/m² | - |
| 1788376615 | 33.33° C | 55% | 1023.1 hPa | 0 mm | - | 603 W/m² | - |
| 1788376309 | 33.33° C | 53% | 1023.4 hPa | 0 mm | - | 593 W/m² | - |
| 1788376005 | 33.33° C | 58% | 1023.5 hPa | 0 mm | - | 610 W/m² | - |
| 1788375700 | 33.33° C | 56% | 1023.5 hPa | 0 mm | - | 607 W/m² | - |
| 1788375396 | 33.33° C | 55% | 1023.5 hPa | 0 mm | - | 634 W/m² | - |
| 1788375091 | 32.78° C | 58% | 1023.4 hPa | 0 mm | - | 631 W/m² | - |
| 1788374786 | 32.78° C | 61% | 1023.6 hPa | 0 mm | - | 635 W/m² | - |
| 1788374482 | 32.78° C | 56% | 1023.6 hPa | 0 mm | - | 646 W/m² | - |
| 1788374178 | 32.78° C | 57% | 1023.4 hPa | 0 mm | - | 627 W/m² | - |
* Rain latest hour (hover to see other rain measurements)
** Current wind speed in m/s (hover to see current wind gust speed)